Time,TemperatureF,DewpointF,PressureIn,WindDirection,WindDirectionDegrees,WindSpeedMPH,WindSpeedGustMPH,Humidity,HourlyPrecipIn,Conditions,Clouds,dailyrainin,SoftwareType,DateUTC
2013-07-08 00:01:00,80.6,71.2,30.00,West,274,7.0,11.0,73,0.00,,---,0.00,VWS V14.01,2013-07-08 04:01:00,
2013-07-08 00:06:00,80.4,71.0,29.99,SW,233,7.0,11.0,73,0.00,,---,0.00,VWS V14.01,2013-07-08 04:06:00,
2013-07-08 00:11:00,80.2,71.2,30.00,West,277,10.0,13.0,74,0.00,,---,0.00,VWS V14.01,2013-07-08 04:11:00,
2013-07-08 00:16:00,79.9,71.3,30.00,WNW,293,6.0,13.0,75,0.00,,---,0.00,VWS V14.01,2013-07-08 04:16:00,
2013-07-08 00:21:00,79.6,71.0,30.00,WSW,240,4.0,13.0,75,0.00,,---,0.00,VWS V14.01,2013-07-08 04:21:00,
2013-07-08 00:26:00,79.4,71.2,30.00,WSW,257,11.0,13.0,76,0.00,,---,0.00,VWS V14.01,2013-07-08 04:26:00,
2013-07-08 00:31:00,79.1,71.3,30.00,WSW,243,6.0,6.0,77,0.00,,---,0.00,VWS V14.01,2013-07-08 04:31:00,
2013-07-08 00:36:00,78.9,71.1,29.99,West,276,4.0,9.0,77,0.00,,---,0.00,VWS V14.01,2013-07-08 04:36:00,
2013-07-08 00:41:00,78.6,70.8,29.99,WSW,249,6.0,9.0,77,0.00,,---,0.00,VWS V14.01,2013-07-08 04:41:00,
2013-07-08 00:46:00,78.4,70.6,30.00,West,266,3.0,10.0,77,0.00,,---,0.00,VWS V14.01,2013-07-08 04:46:00,
2013-07-08 00:51:00,78.2,70.8,29.99,WSW,252,9.0,12.0,78,0.00,,---,0.00,VWS V14.01,2013-07-08 04:51:00,
2013-07-08 00:56:00,78.0,71.0,30.00,WSW,240,6.0,12.0,79,0.00,,---,0.00,VWS V14.01,2013-07-08 04:56:00,
2013-07-08 01:01:00,77.8,70.8,30.00,West,275,8.0,8.0,79,0.00,,---,0.00,VWS V14.01,2013-07-08 05:01:00,
2013-07-08 01:06:00,77.6,70.6,30.00,WSW,252,9.0,12.0,79,0.00,,---,0.00,VWS V14.01,2013-07-08 05:06:00,
2013-07-08 01:11:00,77.4,70.4,30.00,West,266,5.0,12.0,79,0.00,,---,0.00,VWS V14.01,2013-07-08 05:11:00,
2013-07-08 01:16:00,77.2,70.2,30.00,West,278,7.0,12.0,79,0.00,,---,0.00,VWS V14.01,2013-07-08 05:16:00,
2013-07-08 01:21:00,77.1,70.1,30.00,WSW,244,10.0,12.0,79,0.00,,---,0.00,VWS V14.01,2013-07-08 05:21:00,
2013-07-08 01:26:00,76.9,69.9,30.00,West,281,10.0,13.0,79,0.00,,---,0.00,VWS V14.01,2013-07-08 05:26:00,
2013-07-08 01:31:00,76.8,69.8,30.00,West,267,12.0,12.0,79,0.00,,---,0.00,VWS V14.01,2013-07-08 05:31:00,
2013-07-08 01:36:00,76.8,69.8,30.00,West,263,5.0,17.0,79,0.00,,---,0.00,VWS V14.01,2013-07-08 05:36:00,
2013-07-08 01:41:00,76.6,69.6,30.00,WSW,256,7.0,17.0,79,0.00,,---,0.00,VWS V14.01,2013-07-08 05:41:00,
2013-07-08 01:46:00,76.5,69.5,30.00,WNW,282,4.0,17.0,79,0.00,,---,0.00,VWS V14.01,2013-07-08 05:46:00,
2013-07-08 01:51:00,76.4,69.4,30.00,West,262,6.0,17.0,79,0.00,,---,0.00,VWS V14.01,2013-07-08 05:51:00,
2013-07-08 01:56:00,76.3,69.7,30.00,West,263,4.0,17.0,80,0.00,,---,0.00,VWS V14.01,2013-07-08 05:56:00,
2013-07-08 02:01:00,76.2,69.6,30.00,West,260,6.0,6.0,80,0.00,,---,0.00,VWS V14.01,2013-07-08 06:01:00,
2013-07-08 02:06:00,76.1,69.5,30.00,WNW,285,8.0,10.0,80,0.00,,---,0.00,VWS V14.01,2013-07-08 06:06:00,
2013-07-08 02:11:00,76.0,69.4,30.00,West,260,6.0,10.0,80,0.00,,---,0.00,VWS V14.01,2013-07-08 06:11:00,
2013-07-08 02:16:00,75.9,69.3,30.00,WSW,242,8.0,10.0,80,0.00,,---,0.00,VWS V14.01,2013-07-08 06:16:00,
2013-07-08 02:22:00,75.8,69.2,30.00,WSW,257,7.0,10.0,80,0.00,,---,0.00,VWS V14.01,2013-07-08 06:22:00,
2013-07-08 02:27:00,75.7,69.5,30.00,WSW,248,6.0,11.0,81,0.00,,---,0.00,VWS V14.01,2013-07-08 06:27:00,
2013-07-08 02:32:00,75.6,69.4,30.00,West,273,4.0,6.0,81,0.00,,---,0.00,VWS V14.01,2013-07-08 06:32:00,
2013-07-08 02:37:00,75.5,69.3,30.00,West,267,4.0,7.0,81,0.00,,---,0.00,VWS V14.01,2013-07-08 06:37:00,
2013-07-08 02:42:00,75.4,69.2,30.00,SW,233,4.0,9.0,81,0.00,,---,0.00,VWS V14.01,2013-07-08 06:42:00,
2013-07-08 02:47:00,75.3,69.4,30.00,WSW,255,4.0,9.0,82,0.00,,---,0.00,VWS V14.01,2013-07-08 06:47:00,
2013-07-08 02:52:00,75.1,69.2,30.00,WSW,250,5.0,9.0,82,0.00,,---,0.00,VWS V14.01,2013-07-08 06:52:00,
2013-07-08 02:57:00,75.0,69.5,30.00,SW,236,3.0,9.0,83,0.00,,---,0.00,VWS V14.01,2013-07-08 06:57:00,
2013-07-08 03:02:00,74.9,69.0,30.00,WSW,256,4.0,5.0,82,0.00,,---,0.00,VWS V14.01,2013-07-08 07:02:00,
2013-07-08 03:06:00,74.7,69.2,30.01,SW,217,3.0,7.0,83,0.00,,---,0.00,VWS V14.01,2013-07-08 07:06:00,
2013-07-08 03:12:00,74.6,69.1,30.01,WSW,238,4.0,7.0,83,0.00,,---,0.00,VWS V14.01,2013-07-08 07:12:00,
2013-07-08 03:17:00,74.5,69.0,30.00,WSW,255,4.0,9.0,83,0.00,,---,0.00,VWS V14.01,2013-07-08 07:17:00,
2013-07-08 03:22:00,74.4,68.9,30.00,WSW,250,4.0,9.0,83,0.00,,---,0.00,VWS V14.01,2013-07-08 07:22:00,
2013-07-08 03:27:00,74.3,69.2,30.00,SW,231,5.0,9.0,84,0.00,,---,0.00,VWS V14.01,2013-07-08 07:27:00,
2013-07-08 03:32:00,74.2,69.1,30.00,WSW,252,2.0,4.0,84,0.00,,---,0.00,VWS V14.01,2013-07-08 07:32:00,
2013-07-08 03:37:00,74.2,69.1,30.00,WSW,239,2.0,8.0,84,0.00,,---,0.00,VWS V14.01,2013-07-08 07:37:00,
2013-07-08 03:42:00,74.1,69.0,30.00,WSW,242,2.0,8.0,84,0.00,,---,0.00,VWS V14.01,2013-07-08 07:42:00,
2013-07-08 03:47:00,74.1,69.0,30.00,WSW,239,3.0,8.0,84,0.00,,---,0.00,VWS V14.01,2013-07-08 07:47:00,
2013-07-08 03:51:00,74.0,68.9,30.00,WSW,239,3.0,8.0,84,0.00,,---,0.00,VWS V14.01,2013-07-08 07:51:00,
2013-07-08 03:56:00,73.9,69.1,30.00,WSW,253,5.0,8.0,85,0.00,,---,0.00,VWS V14.01,2013-07-08 07:56:00,
2013-07-08 04:01:00,73.9,69.1,30.01,WSW,248,6.0,7.0,85,0.00,,---,0.00,VWS V14.01,2013-07-08 08:01:00,
2013-07-08 04:07:00,73.8,69.3,30.01,SW,221,4.0,9.0,86,0.00,,---,0.00,VWS V14.01,2013-07-08 08:07:00,
2013-07-08 04:12:00,73.7,68.9,30.01,WSW,257,4.0,9.0,85,0.00,,---,0.00,VWS V14.01,2013-07-08 08:12:00,
2013-07-08 04:17:00,73.7,69.3,30.01,WSW,237,6.0,9.0,86,0.00,,---,0.00,VWS V14.01,2013-07-08 08:17:00,
2013-07-08 04:22:00,73.7,68.9,30.01,SW,231,3.0,9.0,85,0.00,,---,0.00,VWS V14.01,2013-07-08 08:22:00,
2013-07-08 04:26:00,73.6,69.2,30.01,SW,233,3.0,9.0,86,0.00,,---,0.00,VWS V14.01,2013-07-08 08:26:00,
2013-07-08 04:32:00,73.5,69.1,30.01,West,265,4.0,6.0,86,0.00,,---,0.00,VWS V14.01,2013-07-08 08:32:00,
2013-07-08 04:37:00,73.4,69.0,30.01,WSW,249,6.0,10.0,86,0.00,,---,0.00,VWS V14.01,2013-07-08 08:37:00,
2013-07-08 04:42:00,73.4,69.3,30.01,West,269,4.0,10.0,87,0.00,,---,0.00,VWS V14.01,2013-07-08 08:42:00,
2013-07-08 04:47:00,73.3,69.2,30.01,WSW,245,6.0,10.0,87,0.00,,---,0.00,VWS V14.01,2013-07-08 08:47:00,
2013-07-08 04:52:00,73.2,69.1,30.01,SW,229,6.0,10.0,87,0.00,,---,0.00,VWS V14.01,2013-07-08 08:52:00,
2013-07-08 04:57:00,73.3,69.2,30.01,SW,228,4.0,10.0,87,0.00,,---,0.00,VWS V14.01,2013-07-08 08:57:00,
2013-07-08 05:02:00,73.2,69.1,30.01,West,271,4.0,5.0,87,0.00,,---,0.00,VWS V14.01,2013-07-08 09:02:00,
2013-07-08 05:07:00,73.1,69.3,30.01,WSW,253,6.0,9.0,88,0.00,,---,0.00,VWS V14.01,2013-07-08 09:07:00,
2013-07-08 05:12:00,72.9,69.1,30.02,West,263,5.0,9.0,88,0.00,,---,0.00,VWS V14.01,2013-07-08 09:12:00,
2013-07-08 05:17:00,72.9,69.1,30.02,WSW,258,4.0,9.0,88,0.00,,---,0.00,VWS V14.01,2013-07-08 09:17:00,
2013-07-08 05:22:00,72.9,69.1,30.02,West,259,3.0,9.0,88,0.00,,---,0.00,VWS V14.01,2013-07-08 09:22:00,
2013-07-08 05:27:00,72.9,69.5,30.02,WSW,251,4.0,9.0,89,0.00,,---,0.00,VWS V14.01,2013-07-08 09:27:00,
2013-07-08 05:32:00,72.9,69.5,30.02,WSW,255,5.0,6.0,89,0.00,,---,0.00,VWS V14.01,2013-07-08 09:32:00,
2013-07-08 05:37:00,72.9,69.1,30.02,West,269,6.0,9.0,88,0.00,,---,0.00,VWS V14.01,2013-07-08 09:37:00,
2013-07-08 05:42:00,73.0,69.2,30.02,WSW,240,7.0,9.0,88,0.00,,---,0.00,VWS V14.01,2013-07-08 09:42:00,
2013-07-08 05:47:00,73.1,69.3,30.03,West,262,5.0,10.0,88,0.00,,---,0.00,VWS V14.01,2013-07-08 09:47:00,
2013-07-08 05:52:00,73.3,69.5,30.03,WSW,249,7.0,10.0,88,0.00,,---,0.00,VWS V14.01,2013-07-08 09:52:00,
2013-07-08 05:57:00,73.3,69.5,30.03,WSW,249,4.0,10.0,88,0.00,,---,0.00,VWS V14.01,2013-07-08 09:57:00,
2013-07-08 06:02:00,73.5,69.7,30.03,WSW,239,3.0,5.0,88,0.00,,---,0.00,VWS V14.01,2013-07-08 10:02:00,
2013-07-08 06:07:00,73.3,69.5,30.03,West,267,2.0,8.0,88,0.00,,---,0.00,VWS V14.01,2013-07-08 10:07:00,
2013-07-08 06:12:00,73.2,69.4,30.03,West,263,3.0,8.0,88,0.00,,---,0.00,VWS V14.01,2013-07-08 10:12:00,
2013-07-08 06:17:00,73.0,69.2,30.03,WSW,245,4.0,8.0,88,0.00,,---,0.00,VWS V14.01,2013-07-08 10:17:00,
2013-07-08 06:22:00,73.0,69.6,30.03,WSW,239,3.0,8.0,89,0.00,,---,0.00,VWS V14.01,2013-07-08 10:22:00,
2013-07-08 06:27:00,72.9,69.5,30.03,WSW,237,4.0,8.0,89,0.00,,---,0.00,VWS V14.01,2013-07-08 10:27:00,
2013-07-08 06:32:00,72.9,69.5,30.04,West,271,4.0,7.0,89,0.00,,---,0.00,VWS V14.01,2013-07-08 10:32:00,
2013-07-08 06:37:00,73.1,69.3,30.04,West,274,4.0,8.0,88,0.00,,---,0.00,VWS V14.01,2013-07-08 10:37:00,
2013-07-08 06:42:00,73.2,69.8,30.04,WSW,251,8.0,10.0,89,0.00,,---,0.00,VWS V14.01,2013-07-08 10:42:00,
2013-07-08 06:47:00,73.4,69.6,30.04,West,262,6.0,10.0,88,0.00,,---,0.00,VWS V14.01,2013-07-08 10:47:00,
2013-07-08 06:52:00,73.6,69.8,30.03,SW,225,6.0,10.0,88,0.00,,---,0.00,VWS V14.01,2013-07-08 10:52:00,
2013-07-08 06:57:00,73.9,69.8,30.04,WNW,282,4.0,10.0,87,0.00,,---,0.00,VWS V14.01,2013-07-08 10:57:00,
2013-07-08 07:02:00,74.2,70.1,30.04,West,266,9.0,9.0,87,0.00,,---,0.00,VWS V14.01,2013-07-08 11:02:00,
2013-07-08 07:07:00,74.4,70.3,30.03,WNW,288,4.0,9.0,87,0.00,,---,0.00,VWS V14.01,2013-07-08 11:07:00,
2013-07-08 07:12:00,74.7,70.2,30.03,SW,224,4.0,9.0,86,0.00,,---,0.00,VWS V14.01,2013-07-08 11:12:00,
2013-07-08 07:17:00,74.9,70.1,30.03,West,269,6.0,9.0,85,0.00,,---,0.00,VWS V14.01,2013-07-08 11:17:00,
2013-07-08 07:22:00,75.5,70.3,30.03,WSW,246,4.0,9.0,84,0.00,,---,0.00,VWS V14.01,2013-07-08 11:22:00,
2013-07-08 07:27:00,75.9,70.7,30.03,West,270,5.0,9.0,84,0.00,,---,0.00,VWS V14.01,2013-07-08 11:27:00,
2013-07-08 07:32:00,76.3,70.4,30.03,WSW,253,6.0,6.0,82,0.00,,---,0.00,VWS V14.01,2013-07-08 11:32:00,
2013-07-08 07:37:00,76.5,70.6,30.03,WNW,287,6.0,10.0,82,0.00,,---,0.00,VWS V14.01,2013-07-08 11:37:00,
2013-07-08 07:42:00,76.6,70.7,30.03,West,259,4.0,10.0,82,0.00,,---,0.00,VWS V14.01,2013-07-08 11:42:00,
2013-07-08 07:47:00,76.7,70.8,30.03,WSW,245,6.0,10.0,82,0.00,,---,0.00,VWS V14.01,2013-07-08 11:47:00,
2013-07-08 07:52:00,76.9,71.0,30.03,West,281,4.0,10.0,82,0.00,,---,0.00,VWS V14.01,2013-07-08 11:52:00,
2013-07-08 07:57:00,76.9,71.0,30.03,West,280,3.0,10.0,82,0.00,,---,0.00,VWS V14.01,2013-07-08 11:57:00,
2013-07-08 08:02:00,77.1,71.2,30.03,WNW,287,3.0,4.0,82,0.00,,---,0.00,VWS V14.01,2013-07-08 12:02:00,
2013-07-08 08:07:00,77.3,71.0,30.03,West,281,4.0,7.0,81,0.00,,---,0.00,VWS V14.01,2013-07-08 12:07:00,
2013-07-08 08:12:00,77.7,71.4,30.03,WNW,294,7.0,8.0,81,0.00,,---,0.00,VWS V14.01,2013-07-08 12:12:00,
2013-07-08 08:17:00,77.9,71.2,30.04,WNW,289,8.0,10.0,80,0.00,,---,0.00,VWS V14.01,2013-07-08 12:17:00,
2013-07-08 08:22:00,77.8,71.1,30.04,SW,228,6.0,10.0,80,0.00,,---,0.00,VWS V14.01,2013-07-08 12:22:00,
2013-07-08 08:27:00,77.8,70.8,30.05,West,281,12.0,13.0,79,0.00,,---,0.00,VWS V14.01,2013-07-08 12:27:00,
2013-07-08 08:32:00,77.7,71.0,30.04,WNW,291,6.0,10.0,80,0.00,,---,0.00,VWS V14.01,2013-07-08 12:32:00,
2013-07-08 08:37:00,77.7,71.0,30.04,West,271,7.0,10.0,80,0.00,,---,0.00,VWS V14.01,2013-07-08 12:37:00,
2013-07-08 08:42:00,78.1,71.8,30.04,WNW,282,6.0,10.0,81,0.00,,---,0.00,VWS V14.01,2013-07-08 12:42:00,
2013-07-08 08:47:00,78.5,71.4,30.04,West,259,6.0,10.0,79,0.00,,---,0.00,VWS V14.01,2013-07-08 12:47:00,
2013-07-08 08:52:00,78.8,71.7,30.04,WSW,255,2.0,10.0,79,0.00,,---,0.00,VWS V14.01,2013-07-08 12:52:00,
2013-07-08 08:57:00,78.7,71.3,30.04,West,267,7.0,10.0,78,0.00,,---,0.00,VWS V14.01,2013-07-08 12:57:00,
2013-07-08 09:02:00,78.5,71.4,30.04,WNW,291,6.0,7.0,79,0.00,,---,0.00,VWS V14.01,2013-07-08 13:02:00,
2013-07-08 09:07:00,78.7,71.3,30.04,SW,226,8.0,12.0,78,0.00,,---,0.00,VWS V14.01,2013-07-08 13:07:00,
2013-07-08 09:12:00,79.3,71.8,30.04,West,267,9.0,12.0,78,0.00,,---,0.00,VWS V14.01,2013-07-08 13:12:00,
2013-07-08 09:17:00,79.5,71.7,30.04,West,273,9.0,12.0,77,0.00,,---,0.00,VWS V14.01,2013-07-08 13:17:00,
2013-07-08 09:22:00,79.5,72.0,30.04,WNW,295,7.0,12.0,78,0.00,,---,0.00,VWS V14.01,2013-07-08 13:22:00,
2013-07-08 09:27:00,80.1,71.9,30.04,West,266,6.0,12.0,76,0.00,,---,0.00,VWS V14.01,2013-07-08 13:27:00,
2013-07-08 09:32:00,80.3,72.1,30.04,WSW,252,6.0,9.0,76,0.00,,---,0.00,VWS V14.01,2013-07-08 13:32:00,
2013-07-08 09:37:00,80.0,71.8,30.04,WSW,237,5.0,10.0,76,0.00,,---,0.00,VWS V14.01,2013-07-08 13:37:00,
2013-07-08 09:42:00,80.1,72.2,30.04,WSW,245,6.0,10.0,77,0.00,,---,0.00,VWS V14.01,2013-07-08 13:42:00,
2013-07-08 09:47:00,80.6,72.3,30.04,SW,225,6.0,10.0,76,0.00,,---,0.00,VWS V14.01,2013-07-08 13:47:00,
2013-07-08 09:52:00,81.2,72.1,30.04,WSW,249,6.0,10.0,74,0.00,,---,0.00,VWS V14.01,2013-07-08 13:52:00,
2013-07-08 09:57:00,81.4,72.3,30.04,SW,225,3.0,10.0,74,0.00,,---,0.00,VWS V14.01,2013-07-08 13:57:00,
2013-07-08 10:02:00,81.3,71.8,30.04,WSW,252,5.0,6.0,73,0.00,,---,0.00,VWS V14.01,2013-07-08 14:02:00,
2013-07-08 10:07:00,81.3,72.6,30.04,WSW,258,7.0,10.0,75,0.00,,---,0.00,VWS V14.01,2013-07-08 14:07:00,
2013-07-08 10:12:00,81.0,71.9,30.03,WNW,287,6.0,10.0,74,0.00,,---,0.00,VWS V14.01,2013-07-08 14:12:00,
2013-07-08 10:17:00,80.8,72.1,30.03,WNW,283,6.0,10.0,75,0.00,,---,0.00,VWS V14.01,2013-07-08 14:17:00,
2013-07-08 10:22:00,80.7,72.4,30.03,WNW,284,2.0,10.0,76,0.00,,---,0.00,VWS V14.01,2013-07-08 14:22:00,
2013-07-08 10:27:00,81.4,72.3,30.03,WSW,258,5.0,10.0,74,0.00,,---,0.00,VWS V14.01,2013-07-08 14:27:00,
2013-07-08 10:32:00,82.0,72.9,30.03,SSE,155,4.0,9.0,74,0.00,,---,0.00,VWS V14.01,2013-07-08 14:32:00,
2013-07-08 10:37:00,82.8,72.4,30.04,West,276,8.0,13.0,71,0.00,,---,0.00,VWS V14.01,2013-07-08 14:37:00,
2013-07-08 10:42:00,82.7,71.5,30.03,WSW,253,3.0,13.0,69,0.00,,---,0.00,VWS V14.01,2013-07-08 14:42:00,
2013-07-08 10:47:00,83.4,72.6,30.03,South,176,6.0,13.0,70,0.00,,---,0.00,VWS V14.01,2013-07-08 14:47:00,
2013-07-08 10:52:00,83.5,71.8,30.03,SSW,203,3.0,13.0,68,0.00,,---,0.00,VWS V14.01,2013-07-08 14:52:00,
2013-07-08 10:57:00,83.8,71.7,30.03,WNW,284,8.0,13.0,67,0.00,,---,0.00,VWS V14.01,2013-07-08 14:57:00,
2013-07-08 11:02:00,84.1,71.1,30.03,SW,228,7.0,9.0,65,0.00,,---,0.00,VWS V14.01,2013-07-08 15:02:00,
2013-07-08 11:07:00,84.1,71.1,30.04,WSW,251,6.0,12.0,65,0.00,,---,0.00,VWS V14.01,2013-07-08 15:07:00,
2013-07-08 11:12:00,84.3,70.3,30.04,WSW,253,8.0,12.0,63,0.00,,---,0.00,VWS V14.01,2013-07-08 15:12:00,
2013-07-08 11:17:00,84.7,70.7,30.04,SW,236,9.0,13.0,63,0.00,,---,0.00,VWS V14.01,2013-07-08 15:17:00,
2013-07-08 11:22:00,84.6,71.1,30.04,West,267,6.0,13.0,64,0.00,,---,0.00,VWS V14.01,2013-07-08 15:22:00,
2013-07-08 11:27:00,84.7,71.2,30.04,WSW,239,8.0,13.0,64,0.00,,---,0.00,VWS V14.01,2013-07-08 15:27:00,
2013-07-08 11:32:00,85.4,71.4,30.05,WSW,245,8.0,12.0,63,0.00,,---,0.00,VWS V14.01,2013-07-08 15:32:00,
2013-07-08 11:37:00,85.9,71.4,30.05,WSW,242,11.0,13.0,62,0.00,,---,0.00,VWS V14.01,2013-07-08 15:37:00,
2013-07-08 11:42:00,85.5,71.5,30.05,WSW,243,9.0,18.0,63,0.00,,---,0.00,VWS V14.01,2013-07-08 15:42:00,
2013-07-08 11:47:00,85.2,71.2,30.04,West,262,7.0,18.0,63,0.00,,---,0.00,VWS V14.01,2013-07-08 15:47:00,
2013-07-08 11:52:00,85.7,71.2,30.04,WSW,240,5.0,18.0,62,0.00,,---,0.00,VWS V14.01,2013-07-08 15:52:00,
2013-07-08 11:57:00,85.5,70.5,30.04,WSW,242,8.0,18.0,61,0.00,,---,0.00,VWS V14.01,2013-07-08 15:57:00,
2013-07-08 12:02:00,85.0,70.5,30.04,WSW,253,5.0,14.0,62,0.00,,---,0.00,VWS V14.01,2013-07-08 16:02:00,
2013-07-08 12:07:00,85.2,71.2,30.04,WSW,255,9.0,14.0,63,0.00,,---,0.00,VWS V14.01,2013-07-08 16:07:00,
2013-07-08 12:12:00,85.8,70.3,30.04,WSW,245,8.0,14.0,60,0.00,,---,0.00,VWS V14.01,2013-07-08 16:12:00,
2013-07-08 12:17:00,85.8,70.8,30.04,SSE,150,3.0,14.0,61,0.00,,---,0.00,VWS V14.01,2013-07-08 16:17:00,
2013-07-08 12:23:00,86.1,71.1,30.04,WSW,238,6.0,14.0,61,0.00,,---,0.00,VWS V14.01,2013-07-08 16:23:00,
2013-07-08 12:28:00,86.4,71.4,30.04,WNW,283,7.0,14.0,61,0.00,,---,0.00,VWS V14.01,2013-07-08 16:28:00,
2013-07-08 12:33:00,85.9,70.9,30.04,WSW,255,10.0,12.0,61,0.00,,---,0.00,VWS V14.01,2013-07-08 16:33:00,
2013-07-08 12:38:00,85.7,70.7,30.03,SW,219,4.0,12.0,61,0.00,,---,0.00,VWS V14.01,2013-07-08 16:38:00,
2013-07-08 12:43:00,85.4,70.9,30.03,WSW,245,6.0,14.0,62,0.00,,---,0.00,VWS V14.01,2013-07-08 16:43:00,
2013-07-08 12:48:00,85.7,71.2,30.04,WSW,248,5.0,14.0,62,0.00,,---,0.00,VWS V14.01,2013-07-08 16:48:00,
2013-07-08 12:53:00,85.7,71.2,30.04,SW,226,7.0,14.0,62,0.00,,---,0.00,VWS V14.01,2013-07-08 16:53:00,
2013-07-08 12:58:00,85.9,70.4,30.03,West,278,9.0,14.0,60,0.00,,---,0.00,VWS V14.01,2013-07-08 16:58:00,
2013-07-08 13:03:00,85.8,70.8,30.04,West,259,9.0,13.0,61,0.00,,---,0.00,VWS V14.01,2013-07-08 17:03:00,
2013-07-08 13:08:00,85.5,71.9,30.03,WSW,242,7.0,13.0,64,0.00,,---,0.00,VWS V14.01,2013-07-08 17:08:00,
2013-07-08 13:13:00,85.8,71.8,30.03,WSW,249,3.0,13.0,63,0.00,,---,0.00,VWS V14.01,2013-07-08 17:13:00,
2013-07-08 13:18:00,86.2,71.2,30.03,West,259,7.0,13.0,61,0.00,,---,0.00,VWS V14.01,2013-07-08 17:18:00,
2013-07-08 13:23:00,86.3,71.8,30.02,West,260,10.0,13.0,62,0.00,,---,0.00,VWS V14.01,2013-07-08 17:23:00,
2013-07-08 13:29:00,86.3,70.3,30.03,WSW,250,4.0,13.0,59,0.00,,---,0.00,VWS V14.01,2013-07-08 17:29:00,
2013-07-08 13:34:00,86.9,71.8,30.02,West,276,3.0,8.0,61,0.00,,---,0.00,VWS V14.01,2013-07-08 17:34:00,
2013-07-08 13:39:00,86.9,70.9,30.02,WSW,242,9.0,15.0,59,0.00,,---,0.00,VWS V14.01,2013-07-08 17:39:00,
2013-07-08 13:44:00,86.7,72.1,30.03,WSW,250,6.0,15.0,62,0.00,,---,0.00,VWS V14.01,2013-07-08 17:44:00,
2013-07-08 13:49:00,86.7,71.2,30.02,WNW,288,7.0,15.0,60,0.00,,---,0.00,VWS V14.01,2013-07-08 17:49:00,
2013-07-08 13:54:00,86.3,71.3,30.02,WSW,239,8.0,15.0,61,0.00,,---,0.00,VWS V14.01,2013-07-08 17:54:00,
2013-07-08 13:59:00,86.6,71.6,30.02,WSW,245,2.0,15.0,61,0.00,,---,0.00,VWS V14.01,2013-07-08 17:59:00,
2013-07-08 14:04:00,87.4,71.3,30.01,SSE,165,6.0,11.0,59,0.00,,---,0.00,VWS V14.01,2013-07-08 18:04:00,
2013-07-08 14:09:00,87.5,71.4,30.01,West,275,6.0,11.0,59,0.00,,---,0.00,VWS V14.01,2013-07-08 18:09:00,
2013-07-08 14:14:00,87.0,70.4,30.01,West,270,7.0,15.0,58,0.00,,---,0.00,VWS V14.01,2013-07-08 18:14:00,
2013-07-08 14:21:00,86.8,70.8,30.01,SW,215,4.0,15.0,59,0.00,,---,0.00,VWS V14.01,2013-07-08 18:21:00,
2013-07-08 14:26:00,87.0,71.4,30.01,WNW,283,5.0,15.0,60,0.00,,---,0.00,VWS V14.01,2013-07-08 18:26:00,
2013-07-08 14:31:00,87.0,71.4,30.01,WSW,252,5.0,6.0,60,0.00,,---,0.00,VWS V14.01,2013-07-08 18:31:00,
2013-07-08 14:37:00,87.2,71.1,30.01,West,273,7.0,9.0,59,0.00,,---,0.00,VWS V14.01,2013-07-08 18:37:00,
2013-07-08 14:42:00,87.3,71.2,30.01,SSW,208,7.0,11.0,59,0.00,,---,0.00,VWS V14.01,2013-07-08 18:42:00,
2013-07-08 14:47:00,87.3,71.7,30.01,SW,235,9.0,13.0,60,0.00,,---,0.00,VWS V14.01,2013-07-08 18:47:00,
2013-07-08 14:52:00,87.2,72.1,30.01,SW,229,5.0,13.0,61,0.00,,---,0.00,VWS V14.01,2013-07-08 18:52:00,
2013-07-08 14:57:00,87.2,71.1,30.00,West,266,7.0,15.0,59,0.00,,---,0.00,VWS V14.01,2013-07-08 18:57:00,
2013-07-08 15:02:00,87.5,70.9,30.01,West,260,5.0,8.0,58,0.00,,---,0.00,VWS V14.01,2013-07-08 19:02:00,
2013-07-08 15:07:00,87.5,70.4,30.01,WSW,246,7.0,11.0,57,0.00,,---,0.00,VWS V14.01,2013-07-08 19:07:00,
2013-07-08 15:12:00,87.7,71.1,30.00,WSW,242,4.0,11.0,58,0.00,,---,0.00,VWS V14.01,2013-07-08 19:12:00,
2013-07-08 15:18:00,87.8,70.7,30.00,West,273,9.0,11.0,57,0.00,,---,0.00,VWS V14.01,2013-07-08 19:18:00,
2013-07-08 15:23:00,87.7,71.1,30.00,West,280,4.0,11.0,58,0.00,,---,0.00,VWS V14.01,2013-07-08 19:23:00,
2013-07-08 15:28:00,87.9,70.8,30.00,SW,229,1.0,11.0,57,0.00,,---,0.00,VWS V14.01,2013-07-08 19:28:00,
2013-07-08 15:33:00,88.6,71.4,30.00,SW,224,3.0,11.0,57,0.00,,---,0.00,VWS V14.01,2013-07-08 19:33:00,
2013-07-08 15:38:00,88.8,71.1,30.00,SW,235,6.0,11.0,56,0.00,,---,0.00,VWS V14.01,2013-07-08 19:38:00,
2013-07-08 15:43:00,88.9,71.2,30.00,SW,218,4.0,11.0,56,0.00,,---,0.00,VWS V14.01,2013-07-08 19:43:00,
2013-07-08 15:48:00,88.7,71.5,29.99,SSW,193,0.0,11.0,57,0.00,,---,0.00,VWS V14.01,2013-07-08 19:48:00,
2013-07-08 15:53:00,88.6,70.9,29.99,SW,232,4.0,11.0,56,0.00,,---,0.00,VWS V14.01,2013-07-08 19:53:00,
2013-07-08 15:59:00,88.3,71.7,29.99,WSW,250,3.0,11.0,58,0.00,,---,0.00,VWS V14.01,2013-07-08 19:59:00,
2013-07-08 16:04:00,88.8,71.6,29.99,SW,221,4.0,7.0,57,0.00,,---,0.00,VWS V14.01,2013-07-08 20:04:00,
2013-07-08 16:09:00,88.5,71.3,29.99,South,191,2.0,10.0,57,0.00,,---,0.00,VWS V14.01,2013-07-08 20:09:00,
2013-07-08 16:15:00,88.3,71.7,29.99,SSW,201,6.0,10.0,58,0.00,,---,0.00,VWS V14.01,2013-07-08 20:15:00,
2013-07-08 16:20:00,88.1,72.0,30.00,South,169,7.0,10.0,59,0.00,,---,0.00,VWS V14.01,2013-07-08 20:20:00,
2013-07-08 16:25:00,88.2,72.6,29.99,South,190,5.0,11.0,60,0.00,,---,0.00,VWS V14.01,2013-07-08 20:25:00,
2013-07-08 16:30:00,88.7,72.0,29.99,SW,222,8.0,11.0,58,0.00,,---,0.00,VWS V14.01,2013-07-08 20:30:00,
2013-07-08 16:35:00,88.6,71.4,29.99,SW,217,8.0,13.0,57,0.00,,---,0.00,VWS V14.01,2013-07-08 20:35:00,
2013-07-08 16:40:00,87.6,70.5,30.01,West,264,16.0,24.0,57,0.00,,---,0.00,VWS V14.01,2013-07-08 20:40:00,
2013-07-08 16:46:00,81.8,66.6,30.01,NW,318,16.0,26.0,60,0.00,,---,0.00,VWS V14.01,2013-07-08 20:46:00,
2013-07-08 16:51:00,78.6,68.0,30.01,West,275,14.0,26.0,70,0.00,,---,0.00,VWS V14.01,2013-07-08 20:51:00,
2013-07-08 16:58:00,78.0,67.8,30.01,NW,312,8.0,26.0,71,0.00,,---,0.00,VWS V14.01,2013-07-08 20:58:00,
2013-07-08 17:03:00,78.0,68.2,30.00,WNW,283,10.0,15.0,72,0.00,,---,0.00,VWS V14.01,2013-07-08 21:03:00,
2013-07-08 17:08:00,77.9,68.6,30.00,WNW,298,9.0,15.0,73,0.00,,---,0.00,VWS V14.01,2013-07-08 21:08:00,
2013-07-08 17:13:00,77.7,68.4,29.99,West,275,3.0,15.0,73,0.00,,---,0.00,VWS V14.01,2013-07-08 21:13:00,
2013-07-08 17:18:00,78.0,67.4,29.99,WNW,285,2.0,15.0,70,0.00,,---,0.00,VWS V14.01,2013-07-08 21:18:00,
2013-07-08 17:23:00,78.6,68.8,30.00,WNW,287,3.0,15.0,72,0.00,,---,0.00,VWS V14.01,2013-07-08 21:23:00,
2013-07-08 17:29:00,79.1,68.5,30.00,West,271,2.0,15.0,70,0.00,,---,0.00,VWS V14.01,2013-07-08 21:29:00,
2013-07-08 17:34:00,79.2,68.6,30.00,West,276,2.0,3.0,70,0.00,,---,0.00,VWS V14.01,2013-07-08 21:34:00,
2013-07-08 17:39:00,79.4,67.5,30.00,NNE,12,0.0,3.0,67,0.00,,---,0.00,VWS V14.01,2013-07-08 21:39:00,
2013-07-08 17:44:00,79.7,67.3,30.00,ENE,71,2.0,3.0,66,0.00,,---,0.00,VWS V14.01,2013-07-08 21:44:00,
2013-07-08 17:49:00,79.7,69.5,30.00,ENE,70,8.0,9.0,71,0.00,,---,0.00,VWS V14.01,2013-07-08 21:49:00,
2013-07-08 17:55:00,79.0,69.2,30.01,ESE,116,4.0,9.0,72,0.00,,---,0.00,VWS V14.01,2013-07-08 21:55:00,
2013-07-08 18:00:00,78.8,69.0,30.01,SE,127,1.0,9.0,72,0.00,,---,0.00,VWS V14.01,2013-07-08 22:00:00,
2013-07-08 18:06:00,79.1,69.3,30.01,ESE,113,1.0,3.0,72,0.00,,---,0.00,VWS V14.01,2013-07-08 22:06:00,
2013-07-08 18:11:00,79.3,68.7,30.01,ESE,104,5.0,9.0,70,0.00,,---,0.00,VWS V14.01,2013-07-08 22:11:00,
2013-07-08 18:16:00,78.9,68.3,30.00,South,170,3.0,9.0,70,0.00,,---,0.00,VWS V14.01,2013-07-08 22:16:00,
2013-07-08 18:21:00,78.8,68.6,30.00,SW,224,4.0,9.0,71,0.00,,---,0.00,VWS V14.01,2013-07-08 22:21:00,
2013-07-08 18:26:00,78.9,68.7,30.00,SW,229,2.0,9.0,71,0.00,,---,0.00,VWS V14.01,2013-07-08 22:26:00,
2013-07-08 18:31:00,79.0,68.8,30.00,SE,141,3.0,3.0,71,0.00,,---,0.00,VWS V14.01,2013-07-08 22:31:00,
2013-07-08 18:36:00,79.1,69.3,30.00,SSE,153,2.0,7.0,72,0.00,,---,0.00,VWS V14.01,2013-07-08 22:36:00,
2013-07-08 18:41:00,79.0,69.2,30.01,SW,221,8.0,8.0,72,0.00,,---,0.00,VWS V14.01,2013-07-08 22:41:00,
2013-07-08 18:47:00,78.5,69.5,30.01,South,190,2.0,8.0,74,0.00,,---,0.00,VWS V14.01,2013-07-08 22:47:00,
2013-07-08 18:52:00,78.5,70.3,30.01,South,191,1.0,8.0,76,0.00,,---,0.00,VWS V14.01,2013-07-08 22:52:00,
2013-07-08 18:57:00,78.5,71.4,30.01,SSW,212,2.0,8.0,79,0.00,,---,0.00,VWS V14.01,2013-07-08 22:57:00,
2013-07-08 19:03:00,78.2,72.3,30.01,SW,233,2.0,7.0,82,0.00,,---,0.00,VWS V14.01,2013-07-08 23:03:00,
2013-07-08 19:08:00,78.2,72.3,30.00,WSW,245,6.0,8.0,82,0.00,,---,0.00,VWS V14.01,2013-07-08 23:08:00,
2013-07-08 19:13:00,78.4,72.1,30.01,West,265,3.0,8.0,81,0.00,,---,0.00,VWS V14.01,2013-07-08 23:13:00,
2013-07-08 19:18:00,78.8,71.7,30.00,West,260,6.0,8.0,79,0.00,,---,0.00,VWS V14.01,2013-07-08 23:18:00,
2013-07-08 19:23:00,79.1,71.7,30.00,SW,231,5.0,9.0,78,0.00,,---,0.00,VWS V14.01,2013-07-08 23:23:00,
2013-07-08 19:29:00,79.5,71.7,30.01,SW,227,2.0,11.0,77,0.00,,---,0.00,VWS V14.01,2013-07-08 23:29:00,
2013-07-08 19:34:00,79.9,71.3,30.00,SW,221,5.0,9.0,75,0.00,,---,0.00,VWS V14.01,2013-07-08 23:34:00,
2013-07-08 19:39:00,79.9,71.7,30.01,SW,233,10.0,12.0,76,0.00,,---,0.00,VWS V14.01,2013-07-08 23:39:00,
2013-07-08 19:44:00,79.6,71.8,30.01,SW,232,5.0,12.0,77,0.00,,---,0.00,VWS V14.01,2013-07-08 23:44:00,
2013-07-08 19:49:00,79.2,72.1,30.01,WSW,239,6.0,12.0,79,0.00,,---,0.00,VWS V14.01,2013-07-08 23:49:00,
2013-07-08 19:54:00,79.0,72.3,30.01,WSW,258,8.0,12.0,80,0.00,,---,0.00,VWS V14.01,2013-07-08 23:54:00,
2013-07-08 20:00:00,78.8,72.1,30.01,West,259,5.0,12.0,80,0.00,,---,0.00,VWS V14.01,2013-07-09 00:00:00,
2013-07-08 20:05:00,78.7,72.4,30.01,West,271,4.0,8.0,81,0.00,,---,0.00,VWS V14.01,2013-07-09 00:05:00,
2013-07-08 20:10:00,78.5,71.8,30.01,West,259,4.0,9.0,80,0.00,,---,0.00,VWS V14.01,2013-07-09 00:10:00,
2013-07-08 20:15:00,78.4,71.7,30.01,WSW,240,4.0,10.0,80,0.00,,---,0.00,VWS V14.01,2013-07-09 00:15:00,
2013-07-08 20:20:00,78.3,71.3,30.01,WSW,250,8.0,10.0,79,0.00,,---,0.00,VWS V14.01,2013-07-09 00:20:00,
2013-07-08 20:26:00,78.3,71.3,30.01,WSW,248,4.0,10.0,79,0.00,,---,0.00,VWS V14.01,2013-07-09 00:26:00,
2013-07-08 20:31:00,78.2,71.2,30.01,SW,222,2.0,5.0,79,0.00,,---,0.00,VWS V14.01,2013-07-09 00:31:00,
2013-07-08 20:36:00,78.0,70.6,30.01,SSW,210,4.0,8.0,78,0.00,,---,0.00,VWS V14.01,2013-07-09 00:36:00,
2013-07-08 20:41:00,78.0,70.6,30.01,SW,236,6.0,9.0,78,0.00,,---,0.00,VWS V14.01,2013-07-09 00:41:00,
2013-07-08 20:46:00,78.0,71.0,30.02,WSW,250,6.0,9.0,79,0.00,,---,0.00,VWS V14.01,2013-07-09 00:46:00,
2013-07-08 20:51:00,77.9,70.9,30.02,WSW,242,6.0,9.0,79,0.00,,---,0.00,VWS V14.01,2013-07-09 00:51:00,
2013-07-08 20:57:00,77.9,70.9,30.02,WSW,256,5.0,10.0,79,0.00,,---,0.00,VWS V14.01,2013-07-09 00:57:00,
2013-07-08 21:01:00,77.8,70.8,30.03,West,260,2.0,5.0,79,0.00,,---,0.00,VWS V14.01,2013-07-09 01:01:00,
2013-07-08 21:07:00,77.8,71.1,30.03,SSE,164,2.0,5.0,80,0.00,,---,0.00,VWS V14.01,2013-07-09 01:07:00,
2013-07-08 21:12:00,77.6,70.9,30.03,West,264,3.0,6.0,80,0.00,,---,0.00,VWS V14.01,2013-07-09 01:12:00,
2013-07-08 21:17:00,77.5,71.2,30.04,WSW,247,7.0,10.0,81,0.00,,---,0.00,VWS V14.01,2013-07-09 01:17:00,
2013-07-08 21:22:00,77.3,71.0,30.03,SSW,212,2.0,10.0,81,0.00,,---,0.00,VWS V14.01,2013-07-09 01:22:00,
2013-07-08 21:27:00,77.2,70.9,30.04,WSW,252,3.0,10.0,81,0.00,,---,0.00,VWS V14.01,2013-07-09 01:27:00,
2013-07-08 21:32:00,77.1,71.2,30.04,WSW,239,3.0,4.0,82,0.00,,---,0.00,VWS V14.01,2013-07-09 01:32:00,
2013-07-08 21:38:00,76.8,70.5,30.04,West,268,3.0,9.0,81,0.00,,---,0.00,VWS V14.01,2013-07-09 01:38:00,
2013-07-08 21:43:00,76.7,70.4,30.05,West,280,4.0,9.0,81,0.00,,---,0.00,VWS V14.01,2013-07-09 01:43:00,
2013-07-08 21:48:00,76.6,70.3,30.05,SW,226,3.0,9.0,81,0.00,,---,0.00,VWS V14.01,2013-07-09 01:48:00,
2013-07-08 21:53:00,76.5,69.9,30.05,SW,231,9.0,9.0,80,0.00,,---,0.00,VWS V14.01,2013-07-09 01:53:00,
2013-07-08 21:58:00,76.3,70.1,30.05,SW,217,6.0,10.0,81,0.00,,---,0.00,VWS V14.01,2013-07-09 01:58:00,
2013-07-08 22:04:00,76.1,69.8,30.05,WSW,251,8.0,8.0,81,0.00,,---,0.00,VWS V14.01,2013-07-09 02:04:00,
2013-07-08 22:09:00,75.9,70.0,30.06,West,263,6.0,8.0,82,0.00,,---,0.00,VWS V14.01,2013-07-09 02:09:00,
2013-07-08 22:15:00,75.9,70.0,30.06,WSW,249,8.0,10.0,82,0.00,,---,0.00,VWS V14.01,2013-07-09 02:15:00,
2013-07-08 22:20:00,75.8,69.9,30.06,WSW,238,4.0,10.0,82,0.00,,---,0.00,VWS V14.01,2013-07-09 02:20:00,
2013-07-08 22:25:00,75.8,69.6,30.06,West,271,4.0,10.0,81,0.00,,---,0.00,VWS V14.01,2013-07-09 02:25:00,
2013-07-08 22:30:00,75.9,69.7,30.06,West,266,6.0,10.0,81,0.00,,---,0.00,VWS V14.01,2013-07-09 02:30:00,
2013-07-08 22:35:00,76.0,69.4,30.06,WSW,250,6.0,10.0,80,0.00,,---,0.00,VWS V14.01,2013-07-09 02:35:00,
2013-07-08 22:41:00,75.9,69.3,30.06,WSW,248,3.0,10.0,80,0.00,,---,0.00,VWS V14.01,2013-07-09 02:41:00,
2013-07-08 22:46:00,75.7,69.5,30.06,West,260,6.0,10.0,81,0.00,,---,0.00,VWS V14.01,2013-07-09 02:46:00,
2013-07-08 22:51:00,75.5,69.6,30.06,West,262,5.0,10.0,82,0.00,,---,0.00,VWS V14.01,2013-07-09 02:51:00,
2013-07-08 22:56:00,75.3,69.4,30.05,SW,217,6.0,10.0,82,0.00,,---,0.00,VWS V14.01,2013-07-09 02:56:00,
2013-07-08 23:01:00,75.1,69.2,30.06,SW,218,2.0,6.0,82,0.00,,---,0.00,VWS V14.01,2013-07-09 03:01:00,
2013-07-08 23:07:00,75.0,69.1,30.06,WSW,246,2.0,7.0,82,0.00,,---,0.00,VWS V14.01,2013-07-09 03:07:00,
2013-07-08 23:12:00,74.9,69.0,30.06,West,269,4.0,8.0,82,0.00,,---,0.00,VWS V14.01,2013-07-09 03:12:00,
2013-07-08 23:17:00,74.8,69.7,30.05,West,264,3.0,8.0,84,0.00,,---,0.00,VWS V14.01,2013-07-09 03:17:00,
2013-07-08 23:22:00,74.7,69.6,30.05,WSW,248,1.0,8.0,84,0.00,,---,0.00,VWS V14.01,2013-07-09 03:22:00,
2013-07-08 23:27:00,74.6,69.4,30.06,West,264,4.0,9.0,84,0.00,,---,0.00,VWS V14.01,2013-07-09 03:27:00,
2013-07-08 23:32:00,74.5,69.3,30.06,SW,236,6.0,7.0,84,0.00,,---,0.00,VWS V14.01,2013-07-09 03:32:00,
2013-07-08 23:37:00,74.5,69.3,30.05,WSW,257,5.0,7.0,84,0.00,,---,0.00,VWS V14.01,2013-07-09 03:37:00,
2013-07-08 23:42:00,74.3,69.2,30.05,WSW,240,6.0,7.0,84,0.00,,---,0.00,VWS V14.01,2013-07-09 03:42:00,
2013-07-08 23:48:00,74.2,69.4,30.05,WNW,284,5.0,9.0,85,0.00,,---,0.00,VWS V14.01,2013-07-09 03:48:00,
2013-07-08 23:53:00,74.2,69.4,30.05,WSW,242,6.0,9.0,85,0.00,,---,0.00,VWS V14.01,2013-07-09 03:53:00,
2013-07-08 23:58:00,74.3,69.5,30.05,WSW,250,3.0,9.0,85,0.00,,---,0.00,VWS V14.01,2013-07-09 03:58:00,